• Join FlightAware (Why Join?)
  • Login
  • US Flag GB Flag 
16:57 EDT


 

Airport Tracker/Info


-or-


 

Live Flight TrackerFlight Track Log ✈ SWA2130 ✈ 24-Apr-2013 ✈ KLAX - KELP

Flight Track Log - Related Links

Times and Time Zones

All times are in EDT time to prevent confusion due to time zone crossing. See the SWA2130 flight status page for this flight to view local times or setup timezone preferences in your user account.

Time Position Orientation Groundspeed Altitude Reporting Facility
EDT Latitude Longitude Course Direction KTS MPH feet Rate Location/Type
20:52 33.8781 -118.5006 217° Southwest 240 276 4,600  Level Los Angeles Center
20:53 33.7925 -118.5114 186° South 258 297 8,700 3,600 Climbing Los Angeles Center
20:54 33.7261 -118.4789 158° South 282 325 12,100 3,240 Climbing Los Angeles Center
20:55 33.6769 -118.3986 126° Southeast 305 351 15,400 3,720 Climbing Los Angeles Center
20:56 33.6444 -118.2778 108° East 338 389 19,800 3,540 Climbing Los Angeles Center
20:57 33.6444 -118.1597 90° East 358 412 22,800 2,700 Climbing Los Angeles Center
20:58 33.6444 -118.0306 90° East 386 444 25,400 2,400 Climbing Los Angeles Center
20:59 33.6444 -117.8944 90° East 408 470 27,800 2,340 Climbing Los Angeles Center
21:00 33.6439 -117.7225 90° East 430 495 30,300 1,980 Climbing Los Angeles Center
21:01 33.6428 -117.6031 91° East 442 509 32,000 2,220 Climbing Los Angeles Center
21:02 33.6425 -117.4231 90° East 450 518 34,900 2,100 Climbing Los Angeles Center
21:03 33.6414 -117.2753 90° East 445 512 36,400 1,320 Climbing Los Angeles Center
21:04 33.6281 -117.1256 96° East 454 522 37,700 1,200 Climbing Los Angeles Center
21:05 33.6114 -116.9742 97° East 458 527 39,000 1,020 Climbing Los Angeles Center
21:06 33.5928 -116.7942 97° East 472 543 39,900 960 Climbing Los Angeles Center
21:07 33.5769 -116.6344 97° East 480 552 41,000 480 Climbing Los Angeles Center
21:08 33.5589 -116.4786 98° East 471 542 41,000  Level Los Angeles Center
21:09 33.5431 -116.3239 97° East 468 539 41,000  Level Los Angeles Center
21:10 33.5258 -116.1681 98° East 469 540 41,000  Level Los Angeles Center
21:11 33.5086 -116.0133 98° East 468 539 41,000  Level Los Angeles Center
21:12 33.4872 -115.8275 98° East 467 537 41,000  Level Los Angeles Center
21:13 33.4694 -115.6717 98° East 472 543 41,000  Level Los Angeles Center
21:14 33.4508 -115.5150 98° East 474 545 41,000  Level Los Angeles Center
21:16 33.4317 -115.3581 98° East 475 547 41,000  Level Los Angeles Center
21:17 33.4131 -115.2011 98° East 476 548 41,000  Level Los Angeles Center
21:18 33.3939 -115.0433 98° East 479 551 41,000  Level Los Angeles Center
21:19 33.3744 -114.8853 98° East 482 555 41,000  Level Los Angeles Center
21:20 33.3544 -114.7258 98° East 485 558 41,000  Level Los Angeles Center
21:21 33.3333 -114.5367 98° East 481 554 41,000  Level Los Angeles Center
21:22 33.3153 -114.3614 97° East 483 556 41,000  Level Albuquerque Center
21:23 33.2944 -114.2031 99° East 483 556 41,000  Level Albuquerque Center
21:24 33.2747 -114.0425 98° East 488 562 41,000  Level Albuquerque Center
21:25 33.2547 -113.8814 98° East 491 565 41,000  Level Albuquerque Center
21:26 33.2339 -113.7236 99° East 484 557 41,000  Level Albuquerque Center
21:27 33.2125 -113.5653 99° East 484 557 41,000  Level Albuquerque Center
21:29 33.1700 -113.2478 99° East 483 556 41,000  Level Albuquerque Center
21:30 33.1447 -113.0597 99° East 479 551 41,000  Level Albuquerque Center
21:31 33.1228 -112.9019 99° East 479 551 41,000  Level Albuquerque Center
21:32 33.1008 -112.7456 99° East 478 550 41,000  Level Albuquerque Center
21:33 33.0792 -112.5889 99° East 477 549 41,000  Level Albuquerque Center
21:34 33.0572 -112.4350 100° East 473 544 41,000  Level Albuquerque Center
21:35 33.0353 -112.2792 99° East 476 548 41,000  Level Albuquerque Center
21:36 33.0111 -112.1114 100° East 475 547 41,000  Level Albuquerque Center
21:37 32.9889 -111.9581 100° East 474 545 41,000  Level Albuquerque Center
21:38 32.9667 -111.8036 100° East 476 548 41,000  Level Albuquerque Center
21:39 32.9447 -111.6478 99° East 478 550 41,000  Level Albuquerque Center
21:40 32.9211 -111.4919 100° East 481 554 41,000  Level Albuquerque Center
21:41 32.8972 -111.3353 100° East 483 556 41,000  Level Albuquerque Center
21:42 32.8736 -111.1789 100° East 483 556 41,000  Level Albuquerque Center
21:43 32.8503 -111.0192 100° East 489 563 41,000  Level Albuquerque Center
21:44 32.8200 -110.8281 101° East 491 565 41,000  Level Albuquerque Center
21:45 32.7958 -110.6692 100° East 493 567 41,000  Level Albuquerque Center
21:46 32.7739 -110.5275 100° East 493 567 41,000  Level Albuquerque Center
21:47 32.7417 -110.3358 101° East 499 574 41,000  Level Albuquerque Center
21:48 32.7164 -110.1747 101° East 501 577 41,000  Level Albuquerque Center
21:49 32.6897 -110.0150 101° East 500 575 41,000  Level Albuquerque Center
21:50 32.6650 -109.8564 100° East 497 572 41,000  Level Albuquerque Center
21:51 32.6383 -109.6956 101° East 502 578 41,000  Level Albuquerque Center
21:52 32.6094 -109.5344 102° East 507 583 41,000  Level Albuquerque Center
21:53 32.5786 -109.3422 101° East 504 580 41,000  Level Albuquerque Center
21:55 32.5508 -109.1822 102° East 504 580 41,000  Level Albuquerque Center
21:56 32.5236 -109.0219 101° East 506 582 41,000 -420 Level Albuquerque Center
21:57 32.4972 -108.8628 101° East 504 580 40,200 -840 Descending Albuquerque Center
21:58 32.4694 -108.7033 102° East 503 579 39,300 -1,080 Descending Albuquerque Center
21:59 32.4364 -108.5150 102° East 496 571 38,100 -1,320 Descending Albuquerque Center
22:00 32.4078 -108.3511 102° East 494 568 36,600 -2,100 Descending Albuquerque Center
22:01 32.3803 -108.1933 102° East 492 566 33,900 -2,040 Descending Albuquerque Center
22:02 32.3522 -108.0389 102° East 486 559 32,500 -2,220 Descending Albuquerque Center
22:03 32.3253 -107.8853 102° East 479 551 29,400 -2,580 Descending Albuquerque Center
22:04 32.2989 -107.7361 102° East 472 543 27,300 -2,040 Descending Albuquerque Center
22:05 32.2728 -107.5975 103° East 446 513 25,300 -2,100 Descending Albuquerque Center
22:06 32.2386 -107.4486 105° East 426 490 23,100 -2,100 Descending Albuquerque Center
22:07 32.2067 -107.3217 107° East 413 475 21,100 -1,920 Descending Albuquerque Center
22:07 32.1956 -107.2628 103° East 399 459 20,200 -1,920 Descending Albuquerque Center
22:08 32.1758 -107.1989 110° East 400 460 19,200 -2,040 Descending Albuquerque Center
22:09 32.1569 -107.1017 103° East 391 450 17,800 -1,980 Descending Albuquerque Center
22:09 32.1486 -107.0683 106° East 391 450 17,200 -2,100 Descending Albuquerque Center
22:10 32.1222 -106.9647 107° East 378 435 15,500 -2,040 Descending Albuquerque Center
22:11 32.0969 -106.8581 106° East 368 423 13,800 -1,740 Descending Albuquerque Center
22:11 32.0919 -106.8358 105° East 373 429 13,400 -1,860 Descending Albuquerque Center
22:12 32.0672 -106.7378 107° East 356 410 11,800 -1,800 Descending Albuquerque Center
22:12 32.0650 -106.7253 102° East 354 407 11,600 -1,800 Descending Albuquerque Center
22:13 32.0428 -106.6361 106° East 344 396 10,200 -1,500 Descending Albuquerque Center
22:13 32.0378 -106.6183 108° East 343 395 10,100 -900 Descending Albuquerque Center
22:14 32.0169 -106.5397 107° East 308 354 9,300 -900 Descending Albuquerque Center
22:14 32.0131 -106.5214 104° East 313 360 9,200 -600 Descending Albuquerque Center
22:15 31.9886 -106.4542 113° Southeast 280 322 8,700 -840 Descending Albuquerque Center
22:15 31.9756 -106.4256 118° Southeast 268 308 8,400 -1,020 Descending Albuquerque Center
22:16 31.9544 -106.3825 120° Southeast 233 268 7,700 -1,200 Descending Albuquerque Center
22:16 31.9431 -106.3603 121° Southeast 232 267 7,200 -1,140 Descending Albuquerque Center
22:17 31.9222 -106.3231 123° Southeast 199 229 6,600 -1,140 Descending Albuquerque Center
22:17 31.9106 -106.3092 135° Southeast 190 219 6,100 -900 Descending Albuquerque Center
22:18 31.8822 -106.3028 169° South 149 171 5,700 -840 Descending Albuquerque Center
22:18 31.8692 -106.3072 196° South 147 169 5,300 -780 Descending Albuquerque Center
22:19 31.8542 -106.3250 225° Southwest 135 155 5,000 -720 Descending Albuquerque Center
22:19 31.8425 -106.3411 230° Southwest 141 162 4,600 -720 Descending Albuquerque Center
22:20 31.8194 -106.3728 229° Southwest 140 161 3,900 -720 Descending Albuquerque Center
22:22 31.8072 -106.3764 166° South  Level Estimated
22:29 31.8072 -106.3764 166° South  Level Estimated
22:30 31.8072 -106.3764 166° South  Level Estimated
22:31 31.8072 -106.3764 166° South  Level Estimated
22:32 31.8072 -106.3764 166° South  Level Estimated